Wind_Speed
1 2 3 2 4 4 3 3 2 3 2 1 3 1 4 4 3 3 2 3 1 2 3 1 2 3 2 4 6 7 5 4 5 5 3 4 12 16 19 18 17 19 20 19 17 16 16 15 15 16 15 13 12 12 11 10 10 9 10 9 10 10 10 10 10 10 10 10 10 10 9 10 10 9 8 8 9 9 9 9 9 9 8 9 8 7 8 8 8 7 5 4 5 4 3 2 1
1 2 3 2 3 3 1 3 2 4 4 3 4 3 5 3 1 5 6 6 4 4 3 2 5 6 5 6 6 5 2 1 3 4 2 8 14 14 19 19 18 19 19 19 18 16 16 16 15 15 15 15 13 12 12 11 11 9 10 9 9 9 9 9 9 9 9 9 8 8 8 8 8 7 7 7 7 8 8 8 8 8 7 7 6 5 6 7 6 5 3 3 4 3 2 1 1
1 1 3 2 3 3 1 3 2 1 3 3 5 4 3 2 5 7 7 7 6 4 3 3 3 4 6 4 2 3 2 2 2 3 1 11 13 16 22 19 19 19 18 19 17 17 17 17 16 16 16 16 14 13 14 12 11 10 11 10 9 9 9 9 9 8 8 8 7 7 7 7 7 6 6 6 7 7 8 8 8 8 7 7 6 5 5 5 4 2 1 2 2 2 2 2 2
2 2 4 3 2 3 4 3 1 4 1 3 3 6 3 4 7 6 7 7 5 2 1 3 1 1 4 2 2 3 3 3 5 7 4 16 18 22 26 20 21 19 19 19 17 18 18 18 17 17 17 17 15 14 15 13 12 12 12 11 11 11 10 10 9 9 8 8 8 7 7 7 6 6 6 7 7 6 6 6 7 7 7 7 6 5 4 4 3 2 3 3 3 3 3 3 3
2 2 3 3 2 1 3 1 2 4 4 4 2 6 6 7 7 5 5 5 4 2 3 4 1 2 1 2 3 1 5 1 5 11 8 18 22 25 27 23 23 21 20 20 18 18 18 19 17 18 18 17 16 16 17 14 13 13 13 13 13 13 12 11 10 10 9 9 9 8 7 7 7 7 7 7 6 6 6 6 6 6 6 7 6 5 5 4 3 3 4 4 3 3 3 3 3
2 2 3 4 2 1 2 1 2 2 5 5 2 7 7 6 7 6 3 4 3 2 3 3 2 2 0 1 1 2 5 1 6 11 11 20 25 27 27 25 25 22 22 20 19 18 18 19 18 18 18 17 16 16 16 14 14 14 14 14 15 15 14 13 12 11 11 11 10 10 9 9 8 8 7 6 5 5 6 6 6 6 6 6 6 5 4 3 3 3 3 3 4 3 3 3 3
2 2 3 4 2 1 3 3 4 4 5 6 5 6 8 6 6 5 3 2 1 2 1 2 3 5 1 1 1 2 2 3 6 7 13 24 30 30 27 26 26 24 22 21 19 19 19 19 18 17 17 18 16 16 16 15 15 14 14 15 15 15 15 15 14 13 12 12 11 10 10 9 9 7 7 6 5 5 5 5 5 6 6 6 6 5 4 3 3 3 3 3 4 4 4 4 4
3 1 1 4 1 2 3 3 4 4 5 5 6 6 7 7 7 6 5 3 1 2 1 2 2 4 2 1 2 3 3 8 5 5 16 27 33 32 29 28 26 25 23 22 21 20 20 19 17 16 16 18 17 16 16 15 14 14 14 14 14 13 14 14 13 13 12 11 10 9 9 8 8 7 6 6 6 6 6 6 6 6 7 6 6 6 5 5 5 5 5 5 4 4 4 5 5
3 2 1 3 1 1 0 3 4 4 5 5 6 7 5 7 6 6 6 3 1 3 3 4 4 2 3 2 3 4 3 9 6 8 21 30 35 34 31 30 29 27 25 23 22 21 21 20 18 16 16 17 16 16 15 15 14 14 14 14 13 12 13 12 12 11 11 10 9 9 8 8 7 7 6 6 6 6 7 7 7 8 8 8 8 8 8 7 7 7 7 7 7 7 6 6 6
3 3 1 1 2 1 4 3 4 4 6 5 7 8 5 7 6 4 5 4 3 3 4 3 1 2 3 4 3 3 4 9 10 17 25 31 36 34 32 31 29 28 26 24 23 23 23 21 19 18 17 17 17 17 16 16 16 15 14 14 13 13 13 12 11 10 10 10 9 9 8 8 7 7 7 7 8 8 9 9 9 10 10 11 10 10 10 10 9 9 9 9 9 9 8 8 7
2 3 2 2 2 2 4 4 4 5 6 5 6 6 6 8 6 3 3 3 3 3 2 1 1 3 3 2 3 2 5 12 17 24 28 33 35 34 33 31 29 27 26 25 23 24 23 22 21 19 19 19 19 19 18 17 16 16 15 14 14 13 13 12 12 11 11 10 9 9 9 9 9 9 9 9 9 10 10 11 11 12 12 12 12 12 11 11 10 10 10 9 9 9 9 8 8
2 3 4 3 2 3 4 3 5 6 7 5 4 4 5 7 5 3 5 4 3 3 4 5 4 5 2 4 3 2 7 18 21 25 30 34 34 33 32 30 29 27 26 24 24 24 23 23 22 21 21 21 21 20 19 17 16 15 14 14 14 14 13 12 12 11 11 11 11 11 11 11 11 10 10 10 10 11 11 11 12 12 12 13 12 12 12 12 11 11 10 10 9 9 9 9 8
3 2 5 2 3 3 3 3 5 5 6 4 4 2 5 7 5 7 7 4 4 4 6 8 4 4 4 4 2 2 8 20 22 25 31 33 33 31 30 29 28 26 25 24 24 23 23 23 23 23 23 22 21 20 18 17 16 15 14 14 14 14 13 13 13 12 13 13 13 13 13 13 12 12 11 11 11 11 11 11 11 11 11 11 12 12 12 11 11 11 11 10 10 9 9 9 9
2 2 5 1 1 1 3 3 4 2 5 6 3 2 3 4 5 6 7 4 7 7 5 7 6 2 3 2 2 3 10 22 24 27 31 31 30 29 28 28 27 26 25 24 24 24 24 24 25 25 24 23 22 20 18 17 16 15 14 14 13 13 13 14 14 15 15 15 15 14 14 13 13 12 12 12 11 11 11 11 11 11 10 10 10 10 10 10 10 10 10 9 9 9 8 8 8
2 1 4 1 2 2 3 4 3 3 4 6 2 1 2 3 2 3 6 6 7 5 0 3 5 2 3 5 5 6 16 27 27 29 30 28 26 26 27 28 27 26 25 24 24 26 26 26 26 26 25 24 22 20 18 17 16 15 14 14 14 14 14 15 16 16 16 15 15 14 13 13 13 12 12 12 12 11 11 12 11 11 10 10 10 9 9 8 8 8 8 8 8 8 7 7 7
2 3 4 1 2 2 3 4 2 1 5 6 3 1 1 6 2 3 5 4 2 2 1 4 5 2 4 8 5 6 20 31 29 30 28 25 24 24 26 27 26 26 25 25 25 27 27 28 28 27 25 24 22 20 19 18 17 16 16 15 15 15 16 17 17 17 16 15 14 14 13 13 13 12 12 12 12 12 12 12 11 11 10 10 10 9 9 8 8 8 8 8 7 7 7 7 7
3 4 2 2 2 2 4 4 2 1 5 6 5 1 4 6 3 2 2 2 1 2 2 5 3 1 2 4 4 5 25 33 31 30 26 24 24 23 24 26 27 27 27 27 27 28 29 29 29 28 26 25 23 21 20 19 18 18 18 17 17 17 18 18 18 17 16 15 15 15 14 14 14 14 14 13 13 13 12 12 11 11 10 10 10 10 10 10 10 9 9 9 9 8 8 7 7
3 3 2 3 3 4 5 6 5 3 3 5 4 4 7 5 4 1 1 1 2 2 3 4 3 2 2 1 3 16 31 34 32 31 27 24 23 23 24 27 29 30 30 29 29 30 31 32 31 29 28 27 25 23 22 21 21 20 20 19 19 19 20 20 19 18 17 17 16 16 16 16 16 16 15 15 14 13 13 12 12 11 11 11 11 11 11 11 10 10 10 10 10 10 9 9 8
2 3 2 4 6 5 5 6 4 2 4 5 5 4 6 6 3 1 2 5 4 4 5 4 5 4 2 4 13 24 32 33 33 32 28 26 27 26 26 27 30 31 33 34 33 33 34 34 33 32 30 29 27 25 24 23 23 22 22 22 22 22 22 21 21 20 19 19 19 19 19 18 18 17 16 15 15 14 13 12 12 11 11 11 11 11 11 10 10 10 10 10 10 10 9 9 9
3 3 2 7 7 6 5 6 6 5 4 4 6 3 4 6 3 2 4 6 6 7 7 4 8 11 5 5 13 22 27 29 30 30 28 29 30 30 28 29 32 35 38 39 37 36 35 35 35 33 32 31 29 28 27 26 25 24 24 24 24 24 23 23 22 22 21 21 21 21 20 19 18 17 17 16 15 14 13 12 12 11 11 11 10 10 10 10 9 9 9 9 9 9 9 9 9
2 4 5 7 5 4 8 8 8 7 4 4 4 1 3 6 3 3 3 4 9 9 9 10 12 14 10 7 11 19 21 23 26 27 26 28 29 30 31 34 37 38 38 36 37 38 37 37 37 35 34 33 32 30 29 28 27 27 27 27 27 26 25 25 24 24 23 23 23 22 21 19 18 18 16 15 14 13 13 12 12 11 10 10 9 8 8 8 8 8 8 8 8 9 8 8 8
2 5 8 7 4 4 9 7 6 5 2 3 4 3 5 3 2 5 7 7 11 7 8 12 13 12 11 13 13 15 16 18 22 24 25 27 29 31 32 33 33 32 32 35 39 41 40 39 38 37 36 35 34 32 31 30 30 30 30 30 29 29 28 27 26 26 25 25 25 23 21 19 18 17 16 15 14 13 13 13 12 11 9 8 8 6 6 7 7 8 8 8 8 8 8 8 8
3 6 6 7 6 6 8 4 4 3 2 6 5 4 2 2 5 5 9 15 15 8 8 12 13 12 13 15 15 14 15 16 20 26 29 30 31 34 35 34 34 34 35 39 41 41 41 40 39 38 37 36 35 33 32 32 31 31 31 31 31 31 30 29 29 27 26 26 24 23 20 19 19 18 16 16 15 14 13 13 12 10 8 6 6 5 5 6 7 7 8 7 7 7 7 7 7
6 6 4 6 8 9 10 6 5 3 6 8 3 4 3 6 8 3 8 18 16 11 6 8 9 8 11 13 14 16 17 19 24 32 35 36 39 41 40 38 38 36 36 38 39 40 42 42 41 40 39 38 37 35 34 33 32 32 32 32 32 32 31 31 30 28 27 25 23 22 21 20 19 18 18 17 16 15 13 12 11 9 7 5 5 4 4 5 6 7 7 6 6 6 6 6 7
6 8 5 4 5 8 9 7 7 6 7 6 3 9 9 9 4 6 18 21 13 11 8 7 5 5 10 13 15 16 16 19 24 30 33 36 38 36 35 34 33 33 36 38 38 40 42 43 42 42 41 40 38 37 36 35 34 34 34 34 33 33 33 32 30 28 27 25 24 23 22 21 20 20 19 18 17 16 14 12 10 9 7 6 5 4 4 5 6 6 6 6 6 5 5 6 7
6 7 5 5 6 8 7 7 8 6 5 3 3 13 11 6 2 9 23 21 11 10 10 9 6 6 9 11 14 15 15 17 21 26 31 33 30 28 32 33 32 35 40 39 38 42 43 43 44 44 43 42 40 39 38 37 36 36 36 35 34 34 33 32 30 28 28 27 26 25 24 22 21 21 20 19 18 16 15 13 11 9 7 6 5 4 4 5 5 6 6 6 5 5 6 6 7
4 4 5 7 8 9 6 7 9 4 4 6 7 15 12 3 1 9 19 10 3 8 9 9 8 10 11 10 11 13 15 19 25 27 25 24 25 29 33 33 35 39 38 37 41 43 42 43 46 45 44 43 42 41 40 39 38 38 37 36 35 35 34 32 30 29 29 29 27 26 25 23 22 21 21 20 19 17 15 14 12 10 8 7 5 3 4 4 5 5 5 5 5 6 6 7 7
2 1 6 10 7 9 9 9 9 2 4 8 10 12 11 1 3 13 20 4 4 5 7 8 8 11 11 11 11 10 12 21 26 22 19 23 29 34 34 36 40 39 38 41 43 41 41 45 46 46 45 44 43 43 41 40 40 39 38 37 36 35 34 33 32 31 30 30 28 27 26 24 23 22 22 21 20 18 16 15 13 11 9 7 5 3 3 3 4 4 5 5 5 5 6 7 8
2 2 6 12 7 11 15 9 7 4 3 5 9 5 9 5 10 19 20 5 2 4 8 9 9 11 10 10 10 9 12 18 18 19 26 32 36 36 37 42 43 40 42 43 40 40 42 45 46 46 45 45 45 44 42 41 41 40 39 38 37 35 34 34 34 33 32 31 29 28 26 25 24 23 22 21 20 19 17 16 14 12 10 7 6 4 3 3 3 4 4 4 4 4 5 6 7
3 2 1 8 7 10 12 2 1 4 4 6 8 3 8 10 16 18 15 6 2 7 11 11 9 10 9 9 9 10 12 13 15 24 33 35 36 36 39 42 41 41 41 37 37 41 43 44 45 45 45 46 45 44 43 42 42 41 40 38 37 36 35 35 35 34 33 32 30 29 28 26 25 24 23 22 21 20 18 17 15 13 11 8 7 5 4 3 3 3 3 3 3 4 6 7 8
3 2 1 3 2 9 9 2 4 2 4 7 7 3 9 14 18 15 9 6 6 8 13 12 10 9 9 9 9 11 11 12 20 29 33 34 35 35 38 39 38 40 38 37 41 43 43 43 44 45 46 47 46 45 45 44 43 42 41 39 38 37 36 36 36 35 34 33 32 31 29 27 26 25 24 23 22 21 19 18 16 14 11 9 7 6 5 3 2 2 2 2 3 4 6 8 9
1 2 4 2 3 7 12 5 7 7 4 4 7 4 8 15 20 13 5 5 8 10 13 12 11 10 10 10 9 11 11 13 21 27 31 34 34 33 36 38 38 40 40 42 43 41 42 43 44 45 46 47 46 46 45 44 44 43 42 40 39 38 38 37 36 35 34 33 33 32 30 28 27 26 25 24 23 22 20 18 17 14 12 10 8 7 5 3 2 1 1 2 4 5 6 8 9
2 3 6 5 5 3 8 8 6 9 4 2 6 6 6 11 16 12 3 4 8 9 12 12 11 11 11 10 8 10 10 11 14 20 30 34 33 35 38 39 40 41 43 43 42 41 42 43 44 45 46 48 47 46 45 44 44 43 42 40 39 39 39 38 37 36 34 34 33 32 31 29 28 27 26 25 23 22 20 19 17 15 13 11 9 8 6 4 2 1 1 2 4 5 7 8 10
3 2 4 5 6 4 3 9 6 4 6 6 9 8 10 14 14 11 6 4 6 7 12 11 9 10 10 9 9 9 10 13 12 17 28 31 32 36 38 40 40 40 41 42 42 43 44 44 45 45 46 46 46 45 44 44 43 42 41 40 40 39 39 38 37 36 35 35 34 32 31 30 29 28 27 26 24 22 21 19 18 16 14 12 11 9 7 5 4 2 1 2 3 5 7 9 11
6 5 4 4 6 6 6 9 4 1 4 7 8 9 14 17 16 15 13 8 7 10 11 10 9 10 10 9 10 10 11 13 15 20 25 24 29 34 36 37 38 38 39 40 42 42 42 43 44 44 44 44 44 44 43 42 41 40 40 39 39 39 39 38 37 37 36 35 34 33 32 31 31 29 28 27 25 24 22 20 19 17 16 14 12 11 9 7 5 4 2 0 2 4 6 9 11
9 7 5 5 7 6 8 13 7 3 6 8 10 13 15 17 17 17 16 13 12 14 11 9 10 11 10 10 10 11 13 15 17 23 22 19 25 31 34 36 37 38 38 39 40 40 41 42 42 42 43 43 43 42 41 40 39 38 38 38 39 39 40 39 38 37 36 36 34 33 33 33 32 31 30 29 27 25 24 22 20 19 17 16 14 12 10 9 6 5 3 1 1 3 4 7 11
5 5 6 8 8 8 10 14 11 5 5 9 12 16 17 16 17 17 15 12 13 16 15 14 12 11 13 12 13 14 15 17 17 19 19 19 23 27 31 34 34 34 35 37 39 41 43 43 43 43 43 43 44 43 43 42 41 39 39 40 41 41 40 40 38 38 37 37 35 34 34 34 33 32 31 30 28 27 25 23 22 20 19 17 14 12 11 10 8 6 5 3 2 2 3 6 10
6 6 8 8 7 11 12 13 13 5 5 9 11 15 17 15 16 15 13 13 15 17 17 18 15 12 12 13 16 16 15 15 15 14 14 17 20 23 28 31 33 34 36 39 41 43 43 43 45 45 44 45 46 46 46 45 45 44 42 43 42 41 41 41 40 40 39 38 37 36 35 35 34 33 33 31 29 28 26 25 24 22 20 18 15 14 12 11 9 8 6 5 4 3 4 5 9
7 5 6 7 6 11 11 10 14 5 4 7 10 13 15 14 14 13 13 16 17 17 17 19 16 12 13 14 15 17 15 15 16 16 13 13 18 21 25 29 34 37 38 40 41 41 42 42 44 44 45 47 47 47 47 46 45 44 42 40 40 39 39 41 40 40 39 39 38 36 35 35 35 34 33 32 31 29 28 27 25 23 21 19 18 16 15 13 11 9 7 6 5 5 5 4 7
6 6 5 7 7 8 7 6 8 4 3 6 9 11 12 11 11 11 15 19 17 16 17 18 15 13 16 16 15 15 16 16 17 17 13 10 13 18 23 28 32 33 33 36 37 39 41 43 44 44 46 47 48 47 47 45 42 40 37 36 37 37 36 37 36 37 39 39 38 37 36 37 36 35 34 33 32 30 29 27 26 24 22 20 19 17 16 14 12 10 9 8 6 6 5 4 4
8 8 8 11 11 11 10 6 6 5 4 5 6 12 11 9 12 13 13 16 16 15 16 17 15 15 16 16 16 16 17 18 17 17 13 8 10 16 22 26 28 30 32 36 40 41 43 44 45 45 45 46 47 47 45 43 39 37 33 29 30 31 30 32 34 35 38 39 39 40 39 38 37 36 35 34 33 31 29 28 26 24 23 21 19 17 16 14 13 12 10 8 6 5 5 6 4
7 8 13 17 14 12 12 9 7 5 5 4 2 9 9 7 12 13 10 10 12 11 13 17 17 15 13 15 17 17 17 17 16 16 12 8 9 13 19 23 26 30 34 39 42 43 43 43 44 44 44 45 44 44 43 42 41 39 37 33 33 32 29 33 39 40 40 42 42 41 40 38 37 36 35 35 33 32 30 28 26 25 24 23 21 18 16 15 14 13 11 9 6 4 4 5 5
8 6 13 15 12 9 10 8 4 2 5 3 3 2 10 6 7 11 9 9 11 10 12 15 16 14 12 13 15 16 15 14 12 13 11 10 10 10 15 22 28 31 35 37 38 40 40 41 43 44 44 44 43 43 44 43 42 42 43 42 40 38 35 37 40 39 40 41 40 39 39 38 37 36 36 35 34 32 30 28 27 26 24 23 21 19 18 16 15 14 12 10 7 4 3 4 5
7 4 8 10 9 8 7 6 5 4 3 3 3 5 8 13 7 10 12 11 11 12 14 15 15 14 12 13 15 15 16 12 9 10 11 11 11 11 15 23 30 32 32 33 35 38 39 40 42 43 43 43 43 44 45 46 46 45 45 42 40 40 39 37 36 36 37 39 38 39 40 39 39 38 37 35 34 32 30 29 28 27 25 23 22 20 18 17 16 15 13 11 8 5 3 2 3
7 3 6 6 6 6 5 5 4 2 4 4 4 6 4 14 6 8 10 10 10 13 16 18 17 15 14 14 15 15 15 12 8 10 12 11 11 14 19 24 29 30 30 33 36 38 38 39 40 41 41 42 43 45 47 48 47 45 44 41 39 39 38 34 34 35 36 37 38 39 40 40 40 39 38 36 35 33 32 31 30 28 26 24 23 20 18 18 17 16 14 12 9 7 4 2 2
5 5 5 4 3 2 4 2 2 3 5 6 7 7 3 12 4 5 4 6 9 13 14 15 15 13 13 13 13 13 12 11 10 11 11 10 11 16 20 21 24 27 29 32 34 35 36 37 38 40 41 41 42 44 46 47 46 44 43 43 41 38 35 32 32 33 35 37 38 39 40 40 41 40 39 37 36 34 33 32 31 29 28 25 23 22 21 20 18 16 14 12 10 8 6 4 2
3 6 5 6 5 5 4 2 4 2 8 7 10 12 7 8 4 5 5 5 8 9 8 10 11 12 13 12 11 12 12 10 9 9 8 7 9 13 17 18 20 24 26 28 30 33 35 36 38 40 40 40 41 43 45 46 45 44 44 45 43 40 37 34 33 34 36 37 38 39 39 40 40 41 40 38 37 35 34 33 31 30 28 26 24 23 22 21 19 17 15 13 11 9 7 6 4
5 4 3 3 4 4 4 4 4 1 9 6 10 13 10 9 7 3 5 5 5 7 8 10 11 13 13 11 11 12 11 8 7 7 7 5 6 10 13 15 18 22 24 27 30 32 34 35 37 38 39 40 41 43 45 46 46 46 45 45 44 42 40 39 39 39 39 40 40 39 38 38 39 40 40 40 39 37 36 34 32 31 29 27 26 24 23 21 19 18 16 14 12 10 9 7 5
4 4 4 1 4 3 2 4 1 4 9 4 6 7 7 11 8 4 9 10 6 8 9 11 12 12 11 11 12 10 7 5 6 7 7 6 7 9 10 13 18 22 26 29 31 32 34 35 37 38 40 42 42 42 45 46 46 48 47 45 44 42 41 42 42 42 42 43 42 40 40 40 40 41 42 42 42 40 38 37 35 33 31 29 27 25 23 22 20 19 17 15 13 11 9 7 5
6 6 6 5 3 2 3 4 3 5 7 3 3 4 5 8 5 8 14 14 10 8 9 11 12 11 11 10 10 9 8 7 7 6 6 7 8 9 10 14 18 22 26 29 30 33 34 34 36 39 40 41 42 43 45 46 47 49 48 46 44 42 42 43 43 43 43 43 43 43 44 43 43 45 46 46 45 43 41 39 37 35 33 31 28 26 24 23 21 19 17 15 13 11 9 7 6
7 5 5 5 6 5 4 5 6 7 5 4 1 4 4 4 3 7 10 8 8 5 7 8 8 9 10 9 10 11 11 8 4 4 7 8 9 9 10 14 19 22 25 28 30 32 33 34 38 40 39 40 43 44 44 46 48 48 47 46 44 44 43 43 43 42 42 44 44 44 45 45 46 47 47 47 46 44 43 40 38 36 34 31 29 27 26 24 22 20 18 16 14 12 11 9 8
4 3 4 4 5 6 4 6 6 3 2 4 3 4 5 4 5 8 8 8 9 7 7 7 8 11 10 10 11 12 11 7 3 4 7 8 8 8 9 14 18 21 24 28 31 33 35 37 39 41 41 41 42 43 45 47 47 45 45 46 45 44 43 42 42 42 43 44 45 45 46 46 46 46 46 46 45 45 44 42 40 38 35 32 30 29 27 25 23 22 20 18 16 14 13 11 10
2 3 4 4 4 6 5 6 2 1 4 7 5 7 5 4 9 8 3 6 8 8 8 8 10 11 9 10 11 11 11 8 4 6 7 7 7 7 10 14 17 21 26 31 35 38 41 41 40 41 40 38 40 43 45 46 44 44 45 46 45 45 45 45 45 44 43 42 43 45 45 45 45 45 45 46 45 45 45 44 42 39 36 34 32 31 29 27 25 23 21 20 18 16 15 13 12
5 4 6 3 3 2 3 2 1 2 8 7 7 15 10 4 8 5 5 4 7 8 8 7 8 9 8 9 10 11 11 8 6 7 7 8 8 8 11 15 20 25 29 33 36 38 39 38 39 40 39 40 44 46 45 44 43 43 44 45 46 47 47 46 45 42 40 40 42 44 45 45 46 46 46 46 45 45 45 45 43 41 38 36 34 33 31 29 27 25 23 21 19 18 16 15 13
4 3 3 3 1 3 3 3 3 6 10 5 7 16 12 7 9 6 5 8 8 8 7 6 7 8 7 9 10 12 11 8 7 8 8 8 9 10 12 16 21 25 28 30 31 31 32 36 38 38 40 43 43 41 41 42 43 44 45 46 46 47 46 45 43 40 39 41 43 45 46 47 47 47 46 46 46 46 46 46 44 42 40 38 36 35 33 31 29 27 25 23 21 20 18 16 15
2 3 3 1 3 4 4 3 3 5 10 8 8 11 9 8 7 5 8 9 7 7 6 6 7 7 7 8 8 10 10 9 8 9 9 10 10 11 13 18 20 22 24 25 25 28 33 36 35 36 38 38 38 38 41 42 44 45 45 44 45 46 46 45 43 40 40 43 44 44 45 46 47 48 48 47 47 48 48 47 46 44 42 40 39 37 35 33 31 28 27 25 23 21 19 17 16
1 3 4 3 2 1 1 2 1 3 8 8 8 9 8 6 4 6 8 7 7 7 4 6 7 7 9 9 9 9 9 9 10 10 11 10 9 10 14 18 18 18 20 22 26 30 32 32 34 36 37 36 37 40 42 43 45 45 45 44 45 46 46 44 43 42 42 44 43 43 44 44 44 47 48 49 49 49 49 49 47 45 44 43 41 40 37 35 32 31 28 26 24 22 20 18 17
5 5 6 6 6 4 4 7 5 4 6 7 8 9 7 4 4 6 7 6 7 7 6 8 10 12 14 13 12 11 9 10 11 12 11 9 9 9 11 14 15 16 19 23 26 28 29 31 35 37 36 37 40 42 44 45 45 44 45 46 45 44 43 43 43 42 43 44 43 43 43 43 43 45 47 49 50 50 50 49 48 47 45 44 43 41 39 36 35 32 29 27 25 23 21 20 19
Wind_Direction
115 85 21 5 353 14 24 62 66 319 75 291 273 212 262 230 199 175 205 235 179 258 240 312 87 99 98 139 160 163 149 161 169 145 214 204 143 161 176 175 175 175 175 175 177 177 175 171 169 164 159 158 156 146 140 139 141 142 137 139 136 132 130 126 127 125 126 124 121 121 121 120 115 117 118 113 105 98 97 96 97 99 96 93 91 91 93 92 95 97 95 98 102 105 95 66 31
85 70 16 6 14 36 320 74 90 329 36 319 281 183 255 285 198 196 200 209 208 203 187 135 88 67 72 94 121 133 138 224 173 156 221 156 145 169 180 184 182 178 179 179 181 182 182 181 179 178 172 164 161 154 148 149 154 153 149 148 142 138 135 132 133 132 132 127 123 124 125 122 115 115 116 113 112 105 98 94 92 95 97 98 93 93 100 94 87 96 105 93 85 87 78 44 341
75 80 30 42 48 49 50 43 86 42 40 286 275 242 264 276 222 217 215 221 218 165 133 157 99 68 83 68 114 130 193 256 161 147 141 164 167 176 179 185 182 181 183 180 182 183 185 184 183 185 182 178 177 173 159 152 157 158 154 152 147 144 138 134 139 140 132 127 124 122 120 118 117 117 119 112 112 114 104 96 95 95 98 101 95 95 106 100 86 77 62 43 40 32 22 4 343
64 26 21 48 63 27 64 46 142 128 202 243 269 272 262 222 223 231 234 234 226 150 135 164 103 109 115 158 184 97 209 249 190 164 154 188 185 174 176 182 182 184 182 181 181 180 183 181 182 185 183 183 180 174 162 151 156 157 153 151 148 148 143 137 141 141 129 128 129 125 123 124 128 128 129 118 117 122 115 112 115 114 111 109 107 100 96 100 93 61 41 33 25 17 13 7 354
42 25 12 47 87 32 95 77 118 126 213 202 241 272 252 221 214 220 241 258 244 223 202 146 117 244 107 176 173 135 205 230 197 180 177 192 181 170 177 181 183 184 183 183 179 179 182 178 177 179 180 180 174 166 156 150 153 153 152 151 145 143 143 141 141 139 133 134 134 134 134 133 130 127 128 127 130 134 130 131 134 135 126 113 107 94 81 76 66 58 49 36 21 15 12 9 3
9 70 28 45 95 130 111 218 193 215 226 184 222 264 255 226 204 200 229 283 277 242 194 161 156 168 336 252 182 202 194 129 170 192 200 182 172 173 179 182 184 184 185 184 183 185 182 177 174 173 173 172 168 161 153 150 152 150 150 149 148 145 142 142 139 137 136 133 132 132 130 126 122 127 139 144 144 140 139 138 139 143 139 127 114 101 88 75 52 36 25 20 14 13 14 13 12
26 72 22 52 44 37 112 212 214 236 239 187 198 252 254 223 195 176 175 223 303 313 198 203 152 119 204 247 174 210 203 183 160 208 205 173 169 177 180 182 183 183 185 187 187 189 183 177 172 169 169 166 164 159 154 154 153 151 151 154 157 153 148 146 143 140 137 134 136 136 134 136 138 148 159 156 148 140 135 129 131 133 136 140 130 118 105 88 62 42 24 18 13 16 19 20 21
45 77 22 87 48 8 112 245 239 213 243 219 213 244 239 202 181 167 179 189 188 251 195 237 178 113 241 182 177 234 204 196 200 230 187 169 170 178 183 184 184 182 187 190 188 189 185 178 171 167 166 164 160 158 158 159 158 158 162 167 167 162 157 157 154 151 149 150 154 157 158 160 162 161 156 150 145 135 129 121 118 118 120 126 125 120 103 88 74 64 56 50 42 34 31 30 28
41 56 44 91 127 332 26 280 267 230 246 253 250 249 223 178 177 168 179 228 245 203 212 220 189 154 223 178 227 269 236 210 214 188 174 170 174 179 185 188 188 186 188 192 191 191 186 179 172 168 166 164 162 161 164 167 171 175 178 180 178 173 169 170 169 167 168 171 172 173 172 170 169 162 154 146 140 132 126 121 114 110 109 109 109 108 100 92 83 77 72 68 67 62 57 50 44
30 34 98 86 109 302 307 272 256 259 245 249 260 243 196 164 182 193 178 223 218 167 229 223 182 193 174 180 230 279 229 206 181 168 173 173 175 182 187 190 193 190 190 192 193 191 186 182 178 175 174 172 172 171 174 178 181 183 183 183 184 182 180 181 180 180 180 181 180 178 176 172 168 160 152 143 136 130 124 119 114 107 103 102 101 100 96 92 86 82 77 74 72 70 68 62 58
29 352 95 90 78 214 258 254 254 264 270 296 287 240 189 165 166 215 193 221 209 156 202 162 220 201 149 227 244 276 191 183 176 171 173 174 178 185 188 191 195 196 195 191 190 190 187 187 185 184 181 180 180 179 181 184 183 182 183 182 183 184 183 185 183 183 181 178 176 171 167 162 157 150 144 139 133 126 121 115 111 106 101 98 96 96 92 89 87 83 80 78 76 74 70 65 66
85 329 65 107 172 203 219 237 263 271 295 309 276 238 168 157 150 209 205 210 195 173 211 188 192 164 139 277 267 309 180 180 182 175 174 176 180 186 190 190 192 198 198 192 189 190 191 190 189 188 186 185 184 184 184 184 184 184 183 183 182 184 183 183 181 179 174 168 163 159 156 153 149 145 139 134 129 124 120 115 112 108 105 101 99 97 93 92 90 86 83 81 80 77 73 69 68
121 153 86 143 195 185 214 232 272 298 309 272 231 234 142 155 196 210 188 193 173 165 234 208 163 141 178 265 273 302 196 187 182 175 175 176 181 186 190 190 191 197 198 197 194 192 193 193 192 190 189 189 187 186 186 185 187 186 185 185 183 183 181 179 176 172 166 161 157 155 152 149 145 142 137 134 130 127 124 120 116 113 110 107 104 100 96 94 91 87 83 81 79 76 73 72 69
146 152 114 205 254 182 216 248 280 289 286 260 246 255 154 178 218 192 150 182 209 185 233 199 144 139 206 267 278 260 207 191 179 175 175 176 183 187 191 191 193 197 200 202 199 196 195 195 195 193 192 191 190 187 186 189 189 190 190 190 186 183 179 176 173 168 164 159 157 155 151 148 144 140 137 135 133 132 131 129 125 121 118 114 110 104 99 96 92 87 83 80 76 73 72 70 67
172 125 99 131 309 311 220 227 239 185 251 254 246 226 203 256 177 153 172 195 237 215 177 172 157 188 196 183 228 244 199 186 176 174 175 178 185 188 191 193 195 198 202 204 202 200 198 198 196 195 196 193 192 188 189 193 192 196 197 195 192 185 180 176 172 168 164 161 158 154 151 147 144 143 141 140 138 138 137 136 133 130 125 120 118 113 108 104 100 95 89 83 76 73 68 66 64
137 101 77 17 257 275 227 215 200 162 251 242 262 39 189 277 188 169 223 175 252 254 130 191 193 203 175 178 234 240 183 176 172 173 175 179 184 187 191 193 197 200 204 206 205 203 201 200 198 197 198 196 195 191 193 197 197 201 201 199 195 188 182 177 173 170 166 162 159 156 154 151 150 149 149 148 147 146 144 141 138 135 130 127 124 120 117 110 106 101 95 90 82 77 69 65 61
65 86 90 288 218 218 214 207 208 202 262 264 293 280 182 279 279 198 274 115 188 250 222 226 220 100 178 220 278 173 165 168 169 171 173 176 179 181 188 193 196 201 205 208 207 205 203 203 201 199 199 199 198 195 196 200 201 202 201 200 195 189 184 180 176 173 169 166 164 162 161 160 159 159 159 160 158 154 150 145 139 135 130 125 121 116 112 106 101 95 91 87 80 76 70 66 62
66 103 159 237 204 210 196 197 208 175 266 264 265 225 184 249 274 222 339 320 260 248 261 262 275 12 35 310 143 150 158 164 168 170 171 173 176 179 187 192 195 201 205 208 209 206 205 204 203 202 201 200 199 198 199 201 203 201 200 199 195 190 185 182 179 176 175 172 171 170 169 168 167 166 166 165 162 156 151 145 138 132 126 120 116 112 108 103 97 91 85 80 76 72 68 66 64
141 137 178 231 205 218 202 201 221 188 254 255 261 244 187 221 230 129 237 258 257 230 261 275 261 272 33 95 138 150 158 163 170 173 174 177 181 186 190 194 197 202 204 207 208 206 206 205 205 205 204 201 200 200 200 202 203 200 199 197 195 190 187 184 182 181 180 178 177 176 175 173 169 168 166 164 160 155 149 142 135 130 124 118 113 109 104 98 91 84 78 74 71 67 63 63 61
184 146 210 243 217 237 247 233 238 228 234 246 267 249 189 235 217 140 223 259 256 220 232 217 236 243 204 146 150 156 161 167 175 178 182 187 190 192 192 194 198 204 206 208 206 204 205 206 206 206 205 203 201 201 201 202 201 199 197 196 195 191 189 187 186 186 184 183 182 180 178 174 171 169 166 163 158 153 146 141 137 132 126 118 112 107 100 92 84 75 70 66 61 59 57 56 55
185 163 210 240 201 235 256 241 238 232 217 214 242 263 261 254 193 190 194 266 269 230 222 207 219 230 194 171 173 167 168 174 181 186 190 193 197 199 200 200 202 206 207 207 206 205 205 206 206 205 205 205 203 202 202 201 198 197 196 195 194 192 191 190 189 189 186 186 184 183 180 174 172 169 166 161 156 152 148 146 142 137 133 124 115 108 96 86 75 65 58 53 50 48 46 44 43
168 218 225 239 188 231 256 241 233 219 208 243 252 271 267 255 183 214 190 230 257 226 212 213 218 224 185 175 180 174 178 182 187 194 197 199 201 204 207 207 207 208 207 208 208 208 206 206 206 205 204 205 204 204 203 202 198 196 196 194 194 193 193 192 192 191 188 187 186 184 180 175 173 170 167 162 158 158 157 155 150 145 142 130 117 103 89 76 60 52 45 42 42 40 37 34 31
220 253 242 244 220 237 262 256 240 202 223 257 253 262 267 307 276 234 200 229 247 229 192 202 221 223 183 169 172 177 188 191 194 199 200 201 204 206 207 208 208 207 207 210 209 208 208 206 206 206 204 204 205 204 203 202 200 198 197 195 195 194 193 194 193 191 189 189 188 184 182 180 175 172 170 166 165 167 166 163 156 149 144 133 115 95 77 64 50 45 42 41 42 37 34 30 27
217 257 261 250 226 233 255 266 276 254 242 247 266 307 271 254 275 295 240 242 246 246 214 201 223 212 167 160 175 187 193 195 201 204 204 204 206 209 208 208 209 208 208 210 209 208 208 207 206 207 207 206 205 204 203 203 201 200 198 196 197 195 193 195 194 191 190 190 189 186 185 185 179 176 175 173 173 173 173 168 161 156 149 139 120 100 76 64 55 50 47 47 47 39 36 31 26
215 238 256 262 240 241 258 272 275 268 253 247 291 286 254 232 266 311 268 260 252 243 236 222 206 160 161 176 189 193 198 202 208 209 209 212 212 213 212 211 210 209 211 212 209 208 209 208 206 208 209 207 206 204 204 203 201 199 198 198 197 196 196 197 195 192 190 190 191 190 189 189 185 181 180 179 179 179 178 173 168 165 157 144 127 107 86 73 64 58 56 54 50 43 39 34 29
219 225 257 278 279 278 280 277 263 257 250 200 242 270 264 235 259 282 267 264 256 234 234 228 193 184 193 193 195 196 202 207 212 213 214 217 216 216 216 214 211 212 215 213 210 210 209 207 207 209 209 209 207 205 205 203 202 200 199 200 198 198 198 197 196 194 193 192 193 194 194 193 190 186 185 184 183 183 181 177 174 170 163 149 136 116 95 77 66 61 57 54 48 41 34 32 30
211 222 270 264 278 288 268 262 266 262 249 196 209 265 275 259 189 266 267 269 232 220 236 234 207 220 218 206 207 201 205 211 212 212 215 217 215 218 218 213 213 215 216 213 213 212 208 207 208 209 209 209 208 207 206 204 203 202 201 201 200 200 199 198 197 196 195 195 196 197 197 195 192 191 190 188 186 186 185 181 178 174 169 159 149 133 106 80 69 61 53 51 42 34 30 28 25
248 291 307 281 296 300 267 261 268 255 262 208 190 259 282 288 175 246 259 271 97 211 243 246 226 235 230 218 219 206 214 219 214 209 210 213 214 216 215 214 215 215 215 216 216 212 208 208 208 208 208 208 208 208 207 205 204 203 202 202 202 202 201 199 198 199 198 198 199 200 200 197 194 194 193 191 189 189 188 183 180 178 176 169 162 150 120 90 70 55 49 43 33 30 26 25 21
296 38 323 291 331 308 276 268 255 198 232 191 152 270 288 235 217 239 253 257 78 266 264 257 240 243 241 229 224 215 224 223 212 211 216 217 216 215 216 218 216 213 216 218 215 211 210 209 208 208 207 208 209 209 208 207 206 204 204 204 203 203 202 201 200 200 201 200 200 201 202 199 197 198 195 194 192 191 190 186 184 181 179 177 170 158 136 106 76 60 53 40 32 27 17 20 18
292 33 308 290 340 301 275 272 192 190 201 172 137 270 275 252 243 243 256 256 239 270 267 260 251 249 246 237 232 227 229 221 211 218 221 221 220 218 219 221 218 215 217 215 213 213 213 210 208 207 206 208 209 209 208 208 207 205 205 205 205 205 204 204 203 202 202 202 202 202 203 201 199 200 198 195 193 193 191 188 188 185 182 179 172 164 150 127 100 79 60 43 29 16 9 10 5
293 304 242 290 308 275 285 80 127 204 215 168 145 230 257 266 265 252 251 230 201 244 258 257 255 253 252 243 236 239 233 220 222 226 225 225 224 220 221 223 219 217 215 213 215 215 212 209 207 206 206 208 208 208 209 209 208 206 206 206 206 206 206 207 206 204 203 203 203 203 203 202 200 200 200 198 196 195 193 189 187 186 183 179 175 170 163 152 133 103 62 40 11 9 8 0 356
355 248 266 283 204 265 301 297 179 211 251 153 153 225 252 263 269 263 251 203 191 231 253 255 257 256 256 252 241 246 247 233 231 233 232 229 226 222 222 223 220 217 215 215 215 212 210 209 207 206 206 206 207 207 208 208 209 207 206 207 208 208 208 209 209 207 205 204 204 204 203 202 202 201 200 200 199 197 194 191 188 185 184 181 179 175 171 169 155 124 36 24 0 3 3 354 350
324 210 240 255 224 259 308 297 221 201 209 173 203 228 253 259 266 273 275 202 195 228 255 255 255 256 254 256 249 248 255 251 243 237 235 231 225 223 222 224 222 219 217 215 213 209 208 208 207 206 206 206 205 206 207 207 208 208 207 208 208 209 209 210 210 209 207 205 205 205 204 203 203 203 201 200 201 199 195 191 188 186 185 184 182 179 177 175 172 198 335 1 357 358 352 347 345
280 215 228 247 239 226 275 292 289 182 170 212 229 229 242 253 264 276 270 210 190 226 257 258 254 257 256 257 257 253 251 253 252 242 238 230 224 224 223 224 224 221 218 215 213 211 208 206 206 206 206 205 203 203 205 206 207 207 208 208 209 209 209 211 210 210 209 207 206 206 205 204 203 203 201 201 201 200 196 192 190 188 187 187 185 184 183 184 188 201 265 346 359 356 347 344 343
232 214 222 251 245 230 245 269 282 153 209 222 232 238 245 256 266 273 271 260 250 245 253 264 264 260 258 257 258 256 252 250 250 248 245 232 223 223 222 223 223 220 217 214 212 210 207 205 204 203 203 202 201 202 203 204 205 205 206 207 208 209 209 211 211 211 211 209 208 207 207 206 203 202 202 202 201 200 196 193 193 191 190 189 188 188 188 191 195 196 205 355 15 359 350 346 345
226 220 225 244 252 246 247 259 250 207 249 237 233 245 246 254 259 263 268 268 267 263 260 262 262 261 259 254 253 254 255 253 249 250 251 238 225 223 222 221 221 219 216 212 208 206 204 202 200 200 201 200 198 198 200 200 200 202 203 203 206 208 209 210 211 213 212 211 210 209 210 207 203 202 203 203 202 200 198 195 194 193 192 192 192 192 190 192 193 189 184 162 73 25 4 353 352
248 245 252 252 257 266 257 266 267 203 226 242 232 247 250 249 254 256 263 268 267 267 266 259 251 253 257 253 251 251 251 255 258 256 250 240 231 224 221 218 215 215 212 208 205 203 203 200 198 197 198 197 195 195 197 197 197 197 198 201 204 206 207 208 210 212 214 214 213 212 211 209 205 203 203 203 202 202 200 197 195 194 194 193 192 190 187 188 186 184 178 161 125 67 37 11 0
254 245 261 265 253 264 258 264 274 221 199 253 242 253 257 250 253 256 261 266 262 260 261 261 254 245 251 253 252 251 250 258 266 264 246 234 229 220 216 212 207 207 206 205 204 202 201 199 198 197 195 195 196 197 197 198 200 199 199 201 203 204 205 207 209 211 214 215 214 214 212 210 207 205 205 204 203 203 201 198 198 197 195 191 187 185 185 186 183 182 180 166 139 95 72 39 9
238 236 259 268 251 269 266 252 269 245 175 259 254 255 260 253 254 255 256 257 256 255 253 258 258 249 249 248 249 253 253 259 263 262 249 229 223 215 209 207 206 207 205 203 202 200 197 197 197 196 194 195 197 198 199 200 202 202 202 202 202 203 205 208 210 212 213 214 214 213 213 211 209 207 206 205 204 204 203 201 199 197 196 191 189 187 186 185 185 182 179 176 153 116 97 65 22
216 221 244 260 246 261 267 243 268 263 195 262 268 265 265 260 261 254 250 252 255 258 255 257 257 248 249 247 248 254 254 255 256 258 255 222 214 211 205 205 205 205 202 199 198 196 195 196 197 196 196 196 197 199 200 200 200 200 203 204 203 203 206 208 210 212 213 213 212 212 213 213 210 208 207 207 207 206 204 203 201 198 196 194 194 192 189 187 188 186 182 184 172 139 122 104 51
214 209 225 247 245 243 253 268 306 303 272 285 288 284 273 238 246 250 246 250 253 256 257 260 256 245 249 255 253 251 251 253 252 255 253 218 207 210 206 205 202 199 199 198 197 196 196 197 197 196 196 197 198 198 198 197 196 195 196 197 198 201 204 204 205 209 210 211 211 211 212 212 210 209 208 209 208 207 205 203 202 200 197 195 195 195 193 189 188 190 188 190 189 162 136 125 105
244 213 220 236 244 246 255 280 324 321 292 312 341 297 285 202 216 241 243 247 251 251 251 255 256 248 246 254 256 251 248 250 251 255 251 223 211 210 206 203 198 198 201 201 199 197 197 196 196 196 196 197 198 197 196 195 194 193 191 189 190 194 198 201 204 206 206 208 210 210 210 211 211 210 209 209 209 208 206 204 202 202 199 197 196 193 192 190 190 192 191 192 196 182 140 123 124
271 228 217 230 239 245 251 266 297 258 258 286 101 283 285 256 212 227 231 240 247 251 251 251 254 251 239 241 252 254 253 249 245 250 246 224 212 203 203 202 198 201 204 201 199 197 197 196 195 196 196 197 197 196 196 195 194 195 196 196 196 196 199 204 207 207 207 207 208 209 210 211 212 212 211 210 210 209 207 205 203 203 202 200 197 194 192 192 192 192 192 194 196 189 164 128 130
267 231 195 207 221 227 217 208 218 230 274 298 143 146 274 280 245 201 209 221 238 248 251 252 252 250 244 241 245 250 254 251 234 238 238 224 213 202 203 203 201 204 202 198 196 196 196 196 196 196 197 197 197 197 197 197 198 198 199 200 201 203 205 208 208 207 208 208 207 209 210 211 212 212 213 211 210 209 207 206 205 204 203 201 199 197 195 193 192 193 192 193 194 189 189 157 141
253 197 158 170 191 201 167 164 202 281 344 293 199 139 265 280 252 171 198 208 225 239 241 247 249 249 249 246 246 247 253 254 233 229 233 220 211 208 205 203 203 203 199 197 197 197 196 196 196 196 197 198 198 198 198 200 201 201 200 201 204 207 209 210 208 206 207 207 207 208 209 210 211 211 213 213 211 209 208 207 206 204 203 201 200 197 195 195 196 198 196 195 196 189 191 201 168
233 120 100 69 69 71 89 123 115 36 313 257 200 154 239 282 284 124 169 196 221 235 235 246 252 255 257 253 254 255 255 255 237 231 233 219 214 213 205 201 202 201 200 199 197 195 195 195 195 196 198 199 199 200 200 201 202 202 203 204 206 207 207 208 207 205 205 205 206 206 207 209 210 210 212 213 213 211 209 208 207 206 204 203 200 197 196 197 197 199 199 198 197 193 191 196 191
137 102 65 30 18 26 46 25 70 39 281 243 187 175 187 274 292 133 170 198 212 224 232 254 262 262 263 259 259 256 250 248 241 237 236 221 214 206 198 198 199 198 198 198 195 195 195 195 196 197 199 200 200 201 202 202 203 204 206 207 208 207 205 203 203 202 203 203 204 205 206 207 208 209 210 211 213 212 210 209 209 208 206 204 202 200 200 200 198 198 199 198 196 194 192 190 192
116 107 78 29 333 5 27 352 54 169 264 238 186 179 179 236 258 185 229 242 206 207 221 238 247 252 258 261 258 254 253 251 248 242 227 202 189 187 190 195 194 192 194 195 195 195 195 196 197 198 200 202 202 202 203 204 205 207 209 210 211 209 206 204 203 203 202 202 203 204 204 205 206 208 209 210 212 212 210 209 208 208 207 205 203 202 201 200 199 199 199 199 197 193 192 193 194
108 114 117 95 299 338 356 310 57 213 258 254 176 173 203 243 249 236 262 270 237 209 215 226 235 245 253 258 257 263 280 264 240 231 213 195 191 186 189 193 191 191 193 194 194 194 196 197 198 199 202 203 203 204 205 206 207 209 211 212 213 212 210 209 207 206 205 204 203 202 202 203 203 205 207 209 211 210 210 209 208 208 207 206 204 202 200 199 200 201 201 200 198 195 195 196 194
158 154 154 170 211 235 256 265 270 255 266 288 153 167 253 280 273 228 238 257 257 226 218 228 232 241 251 259 269 289 297 264 235 221 207 203 202 195 193 194 193 194 195 194 194 195 196 198 200 203 205 205 204 206 206 207 209 211 212 213 213 213 213 213 212 210 208 206 205 204 204 204 204 205 207 209 211 210 209 210 209 207 207 206 204 202 200 201 201 202 202 200 198 198 199 198 197
187 163 146 181 188 177 207 229 247 260 279 308 210 177 235 287 294 233 230 262 286 258 240 253 257 262 271 282 289 288 280 273 259 232 227 221 210 200 199 198 197 197 195 194 195 196 197 200 203 205 207 206 206 207 207 208 211 212 213 214 214 214 215 215 215 214 210 208 206 206 206 206 207 208 209 210 211 209 209 209 209 208 207 205 204 202 201 201 201 200 200 200 200 201 202 201 202
223 127 118 220 201 174 219 247 236 241 302 291 238 211 235 252 266 261 251 262 275 274 274 284 278 266 264 272 274 271 275 299 319 248 249 248 229 209 203 202 201 198 194 195 197 197 200 204 206 208 210 209 208 208 209 211 212 212 213 214 215 215 215 216 217 216 214 211 208 207 208 209 209 209 209 210 209 208 208 208 208 208 206 205 203 203 202 202 201 201 200 201 202 204 205 204 204
183 130 183 216 163 158 224 274 295 81 261 259 250 255 274 302 283 277 252 247 260 273 266 251 255 263 266 269 270 272 283 300 289 251 254 260 251 232 216 208 203 198 196 199 201 201 204 205 206 209 211 210 210 212 213 213 213 213 214 215 215 215 215 217 217 217 216 213 210 209 209 209 210 210 209 209 209 208 208 208 207 207 205 204 203 203 203 204 203 203 204 205 205 205 205 204 206
133 175 207 165 82 128 172 247 319 250 247 254 259 264 273 289 279 308 24 320 286 275 262 255 271 283 284 274 272 276 280 286 275 256 253 252 246 239 226 215 210 206 203 205 206 206 207 208 209 210 210 210 212 213 214 214 213 214 215 215 215 216 216 218 218 218 216 214 212 210 209 209 210 210 209 209 208 207 207 207 207 205 204 203 203 203 203 204 204 204 205 206 206 205 204 203 205
135 225 228 118 171 232 163 177 211 228 243 245 242 257 267 249 248 275 298 284 281 281 290 301 290 285 283 282 286 289 290 295 282 259 250 243 234 232 225 217 216 216 213 211 210 209 211 213 214 213 213 214 214 213 213 215 215 216 216 216 217 217 217 218 218 217 216 215 215 212 209 209 209 208 208 208 207 206 206 206 206 205 203 202 203 203 203 203 204 205 204 204 203 203 204 203 204
14 307 304 39 197 200 179 188 178 218 242 247 236 244 257 245 230 230 240 241 241 260 293 302 285 283 281 277 282 286 289 291 281 265 252 239 233 234 228 220 217 219 220 217 213 212 214 216 216 217 218 218 217 216 215 216 216 217 218 217 217 217 217 217 217 217 216 217 217 214 212 210 207 206 207 207 207 206 205 204 204 204 203 202 202 203 203 203 204 205 205 204 202 202 203 203 202
205 237 251 257 238 204 240 239 172 216 241 248 245 239 244 253 219 199 221 226 207 212 254 288 291 290 280 272 267 269 275 278 276 270 260 245 239 239 235 230 224 222 225 221 217 217 217 217 218 218 220 219 219 218 217 217 218 217 218 217 218 217 216 215 215 216 217 218 217 216 214 211 208 206 205 205 206 206 205 203 202 203 203 203 203 202 203 203 203 204 204 203 202 202 201 200 200
188 206 223 223 228 242 267 251 222 219 240 245 253 253 248 264 273 242 219 214 221 225 250 279 283 278 276 274 266 262 265 268 270 269 264 252 246 244 237 231 222 220 223 222 221 221 218 219 220 219 219 220 221 220 219 220 219 217 218 218 218 217 215 214 214 214 217 218 218 216 214 212 210 208 206 205 205 204 203 202 202 202 202 203 203 203 203 203 203 203 201 201 201 200 199 199 199
Height
819 820 819 820 818 818 820 821 836 841 843 854 849 846 833 822 823 821 821 819 818 817 814 813 810 810 812 814 816 818 821 821 823 833 834 823 822 824 824 825 826 827 829 831 832 834 835 836 836 837 838 839 839 840 841 842 842 842 843 843 843 843 843 843 843 843 843 844 844 844 845 845 845 845 845 845 845 845 845 845 846 846 846 846 846 846 845 845 845 845 845 845 844 844 844 843 843
819 820 819 819 818 820 824 825 843 851 850 855 846 842 830 820 823 819 819 818 816 814 813 813 812 812 812 813 815 818 820 821 820 822 823 821 823 823 824 824 825 827 828 830 831 833 834 834 835 836 837 838 838 839 840 841 842 842 843 843 843 843 843 843 843 843 843 844 844 844 844 845 845 845 845 845 845 845 845 845 845 845 846 846 846 845 845 845 845 844 845 845 844 844 844 843 843
819 820 819 819 819 820 826 830 845 857 857 856 843 834 827 821 820 816 816 815 813 813 814 814 812 813 815 817 816 818 820 822 821 821 823 822 821 820 822 823 824 826 827 829 830 831 832 833 834 834 835 836 836 837 839 840 841 842 842 843 843 843 843 843 843 843 843 843 844 844 844 845 845 844 845 844 844 844 844 844 845 845 846 846 846 845 845 844 844 844 845 845 844 844 843 843 843
819 819 819 818 821 824 831 838 847 855 857 857 844 828 824 820 815 816 816 814 814 814 813 813 813 814 815 818 816 817 819 820 818 818 820 818 816 817 819 821 823 825 826 828 829 830 831 832 832 833 834 834 835 836 837 838 840 841 841 842 842 842 843 843 843 843 843 843 843 844 844 844 844 844 844 844 844 844 844 844 844 844 845 845 845 845 844 844 844 845 845 845 844 844 843 843 843
819 819 819 818 825 829 834 844 850 854 850 847 840 824 819 817 815 817 816 814 814 814 812 812 814 814 813 815 815 815 815 816 815 815 815 814 815 817 818 820 822 823 825 827 828 829 830 830 831 832 832 833 834 834 835 837 838 839 840 841 841 841 841 842 842 842 842 843 843 843 844 844 844 844 844 844 843 843 843 843 844 844 844 844 844 844 844 844 844 844 844 844 844 843 843 843 842
819 819 819 818 824 827 837 847 850 852 839 836 835 822 817 815 817 817 815 815 813 812 812 811 812 813 814 814 814 813 812 813 813 813 812 812 815 816 817 819 820 822 824 826 827 828 829 829 830 831 831 832 832 833 834 835 837 838 839 839 839 840 840 841 841 841 841 842 842 843 843 843 843 843 843 843 843 843 843 843 843 843 843 843 843 843 843 843 843 844 843 843 843 843 842 842 841
819 820 821 823 828 830 843 849 847 848 834 829 829 818 814 814 818 817 816 816 813 812 811 810 809 811 814 813 813 812 811 811 811 811 810 812 815 816 817 818 820 822 823 825 826 827 828 828 829 830 831 831 831 832 833 834 835 836 837 838 838 838 839 839 840 840 840 841 841 841 842 842 842 842 842 842 842 842 842 842 842 842 843 843 843 843 843 843 843 843 843 842 842 842 841 841 841
819 822 825 829 836 838 847 847 844 845 832 824 822 815 812 813 817 816 815 815 814 813 810 810 809 811 813 812 812 811 810 810 810 810 810 812 814 815 816 817 819 820 822 823 825 826 827 828 829 830 830 830 830 831 832 833 834 835 836 836 837 837 837 838 838 839 839 839 840 840 840 841 841 841 841 841 841 841 841 841 842 842 842 842 842 842 843 843 843 843 842 842 842 841 841 840 840
819 823 827 831 840 844 847 847 842 838 829 822 818 813 811 812 816 815 814 815 813 812 811 810 808 811 813 811 811 811 810 809 809 810 811 812 813 814 815 816 817 819 821 823 824 825 826 827 828 829 829 829 829 830 831 832 833 834 835 835 836 836 837 837 837 838 838 839 839 839 840 840 840 840 840 840 841 841 841 841 841 841 841 842 842 842 842 842 842 842 842 842 842 841 841 840 840
822 824 829 835 843 848 848 846 840 832 824 820 816 810 810 812 815 814 813 813 811 810 810 810 809 811 812 811 810 809 809 808 808 809 810 812 813 814 815 816 817 819 820 821 823 824 825 826 827 828 828 829 829 830 830 831 832 833 834 834 835 835 836 836 837 837 837 838 838 838 839 839 839 839 840 840 840 840 840 841 841 841 841 841 841 842 842 841 841 841 841 841 841 841 841 840 840
826 827 829 839 846 848 846 841 837 828 821 819 814 808 808 811 813 814 813 812 810 810 809 811 810 810 812 810 808 808 807 807 807 807 809 811 812 813 814 816 818 819 820 821 823 823 825 825 826 827 827 828 828 829 830 830 831 832 832 833 834 835 835 836 836 837 837 837 837 838 838 838 839 839 839 840 840 840 840 840 841 841 841 841 841 841 841 841 841 841 841 840 840 840 840 840 840
830 832 832 842 846 844 843 840 834 828 823 819 812 805 807 811 812 811 810 810 809 810 809 808 806 805 811 810 807 808 807 807 807 807 809 811 812 813 814 815 818 819 820 821 822 823 824 825 826 826 827 827 828 828 829 829 830 831 831 832 833 834 834 835 836 836 836 837 837 837 837 838 838 839 839 840 840 840 840 840 840 841 841 841 841 841 841 841 841 840 840 840 840 840 840 840 840
829 834 836 842 845 842 842 840 833 830 823 815 809 804 806 809 809 806 806 808 808 811 806 803 802 802 809 808 808 810 807 806 807 808 809 811 812 813 814 815 817 819 820 821 821 822 823 824 825 825 826 826 827 828 828 829 829 830 830 831 832 833 834 834 835 835 836 836 836 837 837 838 838 839 839 839 840 840 840 840 840 840 841 841 841 841 841 841 841 840 840 840 840 840 840 840 840
827 832 835 841 845 841 838 835 828 830 823 810 807 805 805 806 804 803 804 807 807 806 801 799 801 803 807 806 807 807 804 805 807 809 810 811 813 813 814 816 817 818 819 820 820 821 822 822 823 824 824 825 826 826 827 828 828 829 829 830 831 832 832 833 834 834 835 835 836 836 837 837 838 838 839 839 840 840 840 840 840 841 841 841 841 841 841 841 840 840 840 840 840 840 840 840 839
826 830 834 840 844 840 836 832 826 829 822 809 807 804 805 803 801 804 803 804 803 800 799 799 800 802 805 802 801 798 798 802 805 808 810 811 813 814 815 816 817 818 818 819 820 820 820 821 821 823 823 824 825 825 826 826 827 828 828 829 830 831 831 832 833 833 834 834 835 835 836 837 837 838 839 839 840 840 840 840 841 841 841 841 841 841 841 841 841 840 840 840 840 840 839 839 839
825 828 836 841 843 842 836 830 827 828 819 808 807 806 806 803 801 803 799 800 800 798 799 799 798 798 798 797 795 792 794 800 804 807 809 811 812 814 815 815 816 817 818 818 818 819 819 820 820 821 822 823 823 824 825 825 826 827 828 828 829 830 830 831 831 832 833 833 834 835 835 836 837 837 838 839 839 840 840 840 841 841 841 841 841 841 841 841 841 840 840 840 839 839 839 839 838
824 829 839 842 842 841 832 826 824 822 814 808 807 806 807 804 801 800 798 798 799 799 799 797 796 795 795 795 793 791 794 799 803 806 808 810 811 813 814 814 815 815 815 815 816 817 817 818 819 820 820 822 822 823 824 824 825 826 827 827 828 829 829 830 830 831 832 832 833 834 835 835 836 837 838 838 839 839 840 840 840 841 841 841 841 841 841 841 840 840 839 839 839 839 839 838 838
827 834 841 840 840 835 823 818 816 814 811 807 805 805 806 805 801 799 799 799 799 800 798 796 795 795 796 795 794 794 795 799 802 804 806 808 809 810 810 810 811 811 811 812 813 814 815 815 817 818 818 820 821 821 822 823 824 824 825 826 827 828 828 829 829 830 831 831 832 833 834 835 836 836 837 838 838 839 839 839 840 840 840 840 840 840 840 840 840 839 839 838 838 838 838 838 838
828 836 840 835 831 823 814 812 809 810 809 805 804 804 805 803 800 800 800 800 799 800 798 797 796 794 796 796 796 795 796 798 800 801 802 803 804 804 805 806 807 807 807 807 808 810 811 813 814 815 816 817 818 819 820 821 822 823 824 824 825 826 827 827 828 829 830 830 831 832 833 834 835 835 836 837 837 838 838 839 839 839 840 840 840 840 840 839 839 838 838 838 837 837 837 837 837
827 833 838 828 820 816 811 810 807 806 806 805 804 804 805 801 799 800 799 799 798 798 795 795 796 791 793 797 797 797 797 798 798 799 800 799 799 800 800 801 802 801 801 802 804 806 808 810 811 812 814 815 816 817 818 819 820 821 822 823 824 825 825 826 827 827 828 829 830 831 832 832 833 834 835 836 836 837 837 838 838 839 839 839 839 839 839 839 839 838 838 837 837 837 837 837 837
826 829 829 820 816 816 808 805 806 804 805 805 803 804 804 800 799 798 798 800 796 792 789 789 789 785 789 796 797 797 797 797 798 798 797 798 797 797 796 795 795 796 798 801 802 803 804 806 807 809 811 812 813 814 815 816 817 819 820 821 822 823 824 825 825 826 827 828 828 829 830 831 832 832 833 834 835 835 836 837 837 838 838 838 839 839 838 838 838 838 837 837 836 836 836 836 836
824 822 818 815 817 815 805 803 805 803 805 804 803 804 801 798 798 796 797 798 788 782 783 782 781 780 784 790 793 795 796 796 796 796 795 795 794 794 794 794 795 796 798 798 797 799 800 802 804 806 808 809 810 812 813 814 815 816 817 818 820 821 822 823 824 824 825 826 827 827 828 829 830 831 832 832 833 834 835 836 836 837 837 837 838 838 837 837 837 837 836 836 836 835 835 835 835
822 818 814 813 815 812 804 802 803 803 805 804 803 801 798 799 797 793 793 789 777 774 777 777 776 776 778 784 789 792 792 792 791 790 789 789 789 789 789 790 791 792 793 792 793 796 797 799 801 803 805 806 808 810 811 812 813 814 815 816 817 819 820 821 821 822 823 824 825 826 826 827 828 829 830 831 832 833 834 835 835 836 836 836 836 837 836 836 836 836 836 836 835 835 835 835 835
821 818 813 811 811 809 804 803 803 804 805 802 803 801 799 800 797 794 788 777 772 773 774 774 774 774 777 781 785 785 785 786 784 782 782 782 781 781 782 784 786 788 789 789 791 793 794 796 798 800 801 803 805 807 808 809 811 812 813 815 816 817 818 818 819 821 822 822 823 824 824 825 826 827 828 830 830 831 833 833 834 835 835 835 835 835 835 836 836 836 836 836 836 836 835 835 835
820 816 812 809 808 806 803 804 803 804 803 802 803 800 798 798 798 794 780 769 770 772 773 773 774 775 776 778 779 781 781 781 780 779 780 778 778 780 782 783 785 787 785 786 788 790 791 793 795 796 798 800 802 804 805 807 808 810 811 812 813 815 816 816 818 819 820 820 821 822 823 824 824 826 827 828 829 830 831 832 833 833 834 834 834 835 835 835 835 835 835 835 835 835 836 835 835
814 812 810 808 806 803 802 802 800 802 801 801 803 798 795 796 798 790 769 763 768 769 770 771 773 774 773 774 775 776 777 777 776 776 775 776 779 781 780 781 782 781 780 782 785 785 787 790 792 793 794 797 799 801 802 804 806 807 808 809 811 813 814 815 816 817 818 818 819 820 821 822 823 824 825 826 827 828 829 830 831 832 832 833 833 833 834 834 834 834 834 835 835 835 835 835 835
811 811 810 807 807 804 801 800 797 800 799 799 801 796 792 795 799 787 762 760 766 766 768 769 771 771 769 771 771 772 772 770 769 770 773 775 777 776 775 778 777 776 778 780 780 781 784 786 788 789 792 794 796 798 799 801 803 804 806 807 809 810 812 813 815 815 816 817 817 818 819 820 822 822 823 824 825 827 828 829 830 831 831 832 832 832 832 833 833 833 833 834 834 834 834 834 834
810 811 809 805 806 803 798 798 797 798 797 794 797 796 792 796 799 782 760 761 767 766 767 768 769 768 766 768 767 769 768 764 765 768 770 769 767 767 769 770 769 772 774 774 774 778 781 782 784 786 789 791 793 795 797 798 800 802 803 805 806 808 810 811 812 813 814 815 815 816 817 818 820 820 821 822 823 825 826 827 828 829 830 830 831 831 831 831 832 832 832 832 833 833 833 833 833
810 811 813 807 807 803 791 792 794 795 796 791 795 799 793 791 786 769 758 763 767 767 767 765 766 764 764 764 764 765 762 761 765 765 761 758 758 760 762 761 764 767 768 769 773 776 776 778 781 783 786 788 790 791 794 796 797 800 801 802 804 805 807 808 809 811 811 813 813 814 816 817 818 819 820 821 822 823 825 826 827 828 828 829 830 830 830 830 831 831 831 832 832 832 832 832 832
810 812 815 812 815 807 786 788 793 793 795 789 793 803 791 778 771 762 760 765 767 768 765 762 763 761 761 761 761 760 758 759 760 756 752 753 754 755 756 757 760 763 764 768 771 771 772 775 778 780 783 784 786 789 791 793 795 797 799 800 802 803 804 805 807 808 810 811 812 813 814 815 816 817 818 819 820 821 823 824 825 826 827 828 828 829 829 829 830 830 830 831 831 831 831 830 831
813 816 817 819 824 807 784 789 794 791 793 788 792 805 793 771 761 759 760 764 767 767 762 760 759 759 758 757 758 755 753 754 752 748 749 749 750 752 752 754 757 759 761 764 764 765 768 771 774 776 778 781 783 786 788 790 792 793 796 798 799 800 802 803 804 806 808 809 810 811 812 813 814 816 817 818 819 820 821 822 824 825 825 826 827 828 828 829 829 829 829 830 830 830 829 829 829
816 820 820 822 825 810 790 787 790 789 790 791 793 800 793 773 758 755 760 763 765 764 759 757 757 757 756 754 754 752 749 748 747 745 745 745 747 748 749 750 752 754 756 757 759 763 766 767 770 772 774 777 779 782 785 787 789 791 794 795 797 798 800 801 802 804 806 807 808 809 810 812 813 814 815 816 817 818 820 821 822 823 824 825 826 826 827 827 828 828 828 829 828 828 828 828 828
820 822 820 819 820 818 803 786 784 786 788 792 792 791 786 772 757 755 761 762 762 762 757 755 756 754 753 752 751 749 747 744 743 742 740 740 742 743 744 746 747 748 750 752 755 758 761 763 766 768 770 772 775 779 782 785 787 789 791 794 795 797 798 799 800 802 804 805 806 807 808 810 811 812 814 815 816 817 818 820 820 822 822 823 824 825 826 826 827 827 827 827 827 827 827 827 827
820 822 822 819 816 818 810 789 782 786 787 788 789 788 780 765 755 755 758 759 761 761 755 753 754 753 751 750 749 747 745 742 738 734 732 734 737 738 739 741 742 744 746 749 751 753 756 759 761 764 767 770 774 777 780 783 785 788 790 793 794 795 797 798 799 801 802 803 804 805 806 808 809 810 812 813 814 816 817 818 819 820 821 822 823 824 824 825 826 826 826 826 826 826 826 826 827
812 815 817 817 813 814 812 797 785 785 787 787 789 790 782 769 761 758 756 757 759 757 753 752 752 751 750 748 747 744 742 738 731 726 726 730 732 734 736 738 740 742 743 745 747 750 753 756 758 762 765 768 772 775 779 782 784 787 789 792 793 794 796 797 798 799 800 801 802 803 805 806 807 808 810 811 812 814 815 816 817 818 818 820 821 822 823 824 824 825 825 825 825 825 826 826 826
804 807 809 811 809 808 805 794 784 784 788 788 787 784 777 772 766 760 756 755 755 752 752 752 750 748 746 745 744 740 738 732 723 721 724 727 728 730 732 735 737 738 740 742 744 747 749 752 755 758 761 765 769 773 776 780 782 785 787 789 790 791 792 794 795 797 798 799 800 802 803 804 805 807 808 809 810 812 813 814 815 816 817 817 818 820 821 822 823 823 824 825 825 825 826 826 826
804 808 809 809 809 806 797 788 782 784 788 784 780 776 770 767 762 757 754 753 752 749 747 746 745 745 742 740 738 735 732 723 717 719 722 723 724 726 729 730 733 735 737 739 740 742 744 747 750 753 757 761 765 768 771 774 776 779 781 783 784 786 788 791 792 794 795 796 798 799 800 801 803 804 805 807 808 809 811 812 813 814 815 816 817 819 820 821 822 822 823 824 824 825 826 826 826
805 809 810 809 811 803 792 787 781 782 789 782 775 775 769 765 760 755 754 753 748 743 741 737 736 740 737 735 733 728 725 719 715 717 717 719 721 722 725 726 729 730 731 733 734 736 740 742 745 748 752 756 759 761 765 767 769 771 773 775 779 782 784 786 788 790 792 794 795 796 797 799 800 802 803 804 806 807 808 809 810 812 813 814 816 817 819 819 820 821 822 823 824 824 825 826 826
807 811 813 812 809 798 788 785 779 782 788 780 774 773 765 761 758 755 753 748 740 736 735 731 730 735 733 729 727 722 720 717 714 712 712 715 717 718 721 722 723 724 725 728 730 733 737 739 742 745 748 751 754 757 760 763 766 769 771 773 776 780 782 784 786 788 790 791 792 794 795 797 798 799 800 802 803 804 806 807 808 810 811 812 813 815 816 818 819 820 821 822 822 823 823 824 825
808 809 812 809 802 798 791 782 776 781 785 778 776 773 763 759 757 754 750 741 735 733 730 728 727 729 725 722 720 717 715 713 710 707 707 711 714 715 716 716 718 721 723 725 728 731 733 735 738 741 744 746 750 753 756 760 764 768 771 774 777 779 781 783 786 787 787 788 790 791 792 794 795 796 798 799 801 802 803 805 806 808 809 810 811 812 814 815 816 818 819 820 820 820 821 823 824
802 804 806 800 794 795 791 783 780 782 782 778 779 772 756 752 754 748 742 737 733 732 729 726 724 722 720 717 714 712 709 706 704 702 703 707 710 710 711 713 715 717 719 720 722 725 727 730 734 737 741 744 747 750 754 758 762 766 770 774 777 779 780 782 782 782 782 784 785 786 788 790 792 794 796 797 799 800 801 803 805 806 807 808 809 810 811 812 814 815 817 817 817 817 818 820 822
796 798 794 787 786 789 788 786 789 790 785 781 784 776 748 736 744 743 736 735 733 730 728 723 718 716 717 715 708 705 703 700 700 699 700 703 706 707 708 710 712 712 713 714 717 720 723 727 731 735 738 742 745 748 752 755 758 761 764 767 770 772 774 773 772 773 775 778 780 782 786 788 790 792 794 795 797 798 800 801 803 804 805 805 806 808 808 810 811 813 814 815 814 814 814 816 819
795 789 781 781 786 788 788 789 792 791 787 784 787 786 761 733 734 738 733 734 732 727 726 720 714 712 712 711 704 699 697 696 697 697 697 699 701 704 705 705 706 707 708 711 715 718 721 724 728 731 735 738 742 745 748 751 754 756 758 759 761 763 765 765 766 770 773 776 778 781 784 786 788 789 791 793 795 797 798 800 801 802 803 804 804 805 806 807 809 811 812 812 812 812 812 813 816
791 782 776 777 781 785 787 789 792 790 788 789 785 788 781 744 723 727 725 727 730 723 719 713 709 707 706 705 701 696 693 691 694 695 693 695 696 698 699 700 701 703 706 710 713 716 719 722 725 728 732 734 737 741 743 746 748 751 753 756 758 758 759 761 765 770 772 775 778 779 781 783 785 787 788 790 792 794 796 798 799 800 801 802 803 804 804 806 807 808 809 810 809 809 809 810 813
783 782 783 780 780 783 786 786 791 795 794 793 785 786 786 745 711 718 721 724 729 721 712 704 699 700 699 698 695 693 691 689 691 691 689 690 691 693 694 695 699 701 704 707 709 713 716 720 724 727 730 732 734 737 739 742 744 747 750 753 754 756 758 762 764 768 770 772 775 776 779 780 782 784 785 787 789 791 794 795 797 798 799 800 801 802 803 804 805 806 807 807 807 807 807 808 810
779 784 785 785 787 786 790 787 788 796 791 786 782 783 781 740 706 719 727 726 726 716 709 702 696 696 694 692 691 690 689 687 687 687 686 688 688 690 692 695 698 700 703 705 708 712 715 718 722 724 727 729 732 734 737 739 742 745 747 748 750 753 756 760 762 765 767 769 771 773 775 777 778 780 782 784 786 788 791 793 794 795 796 798 799 800 801 802 803 804 805 805 805 805 805 806 807
781 784 781 785 790 789 794 793 790 796 785 772 770 772 777 750 716 720 723 716 714 710 707 703 699 696 692 690 688 685 684 682 683 684 685 687 688 690 693 695 697 700 703 706 708 711 713 716 719 721 724 727 729 732 734 737 739 741 742 743 746 749 752 755 758 760 763 765 767 769 771 773 775 777 779 781 783 785 788 790 792 793 794 795 796 797 798 800 801 802 803 803 803 803 803 804 805
781 782 780 784 789 790 796 798 799 800 779 760 760 765 773 754 719 713 711 704 706 707 704 698 694 692 687 687 686 679 678 679 681 683 684 687 689 690 693 694 696 699 701 703 705 708 711 714 717 719 722 724 726 728 730 733 735 737 739 740 742 745 747 749 751 753 756 758 761 764 768 770 773 775 777 778 780 782 785 787 789 791 792 793 794 795 796 798 799 800 801 802 802 802 802 802 802
783 784 785 791 797 797 799 798 800 796 773 760 767 771 765 738 710 709 707 700 699 700 699 694 690 688 683 682 680 676 678 679 679 681 683 686 687 688 690 691 693 695 696 699 701 705 708 710 713 715 716 719 722 724 726 729 731 731 734 736 739 742 744 744 745 747 750 752 756 759 762 765 767 770 771 773 775 777 780 782 785 787 789 790 791 793 794 796 797 798 799 800 800 801 801 800 801
784 780 782 791 799 802 802 796 794 785 767 764 775 773 756 727 706 703 699 694 693 693 694 693 690 688 683 680 680 679 679 678 677 679 681 683 684 684 686 687 689 690 692 696 699 701 705 707 710 711 712 715 718 719 721 724 725 726 729 732 735 739 740 741 742 743 744 747 750 753 755 758 760 762 764 767 769 773 776 779 781 784 786 788 789 791 792 793 795 796 797 798 798 799 799 798 799
777 771 773 779 780 785 787 779 772 764 757 765 777 768 745 723 707 699 694 693 693 692 693 693 693 692 689 687 685 682 677 675 679 682 682 682 682 682 683 684 685 687 690 693 695 698 702 703 705 706 708 711 712 714 716 718 719 722 726 728 731 733 735 737 739 740 741 742 745 748 750 753 755 757 759 763 766 769 772 775 778 780 783 785 787 788 789 791 792 793 794 795 796 797 796 796 796
774 770 772 772 765 765 766 761 755 758 761 763 765 754 732 715 702 696 697 695 691 692 693 694 692 689 688 687 683 678 675 676 681 683 683 684 683 682 682 682 683 685 688 690 691 694 696 697 699 701 704 706 709 711 711 712 715 719 722 724 726 728 731 733 735 737 737 737 739 742 745 747 750 753 756 759 762 765 768 771 774 777 779 782 784 785 786 787 789 790 791 792 793 793 793 793 794
769 774 768 763 760 757 759 760 758 765 769 751 740 736 725 713 699 691 695 695 691 692 689 688 687 684 687 687 682 680 677 679 683 683 684 686 686 684 682 682 683 683 684 684 685 686 687 690 694 696 700 704 706 707 707 709 712 715 716 718 721 724 726 727 728 731 734 735 736 737 740 744 746 749 752 754 757 760 763 767 769 772 775 778 779 781 782 784 785 786 787 788 789 790 790 790 791
761 765 756 754 761 760 762 769 766 767 767 746 729 725 721 720 709 693 693 693 688 686 684 686 688 687 688 686 683 682 679 680 683 683 684 684 685 684 681 680 681 680 679 679 680 683 685 688 690 692 695 697 698 699 702 706 708 710 711 713 716 718 720 722 725 728 732 734 734 733 735 737 740 744 747 750 752 755 758 762 765 767 770 772 774 776 778 780 781 782 783 784 786 786 787 787 788
758 755 750 753 760 759 761 770 767 763 760 746 731 723 718 718 708 694 693 691 684 682 684 687 686 686 688 686 684 683 680 681 681 679 680 680 680 680 678 677 678 679 679 679 681 684 686 687 688 689 691 691 693 697 699 702 704 705 706 708 710 713 715 719 722 725 728 730 731 730 730 730 733 737 741 744 747 750 753 756 759 762 765 767 770 772 774 775 777 778 779 781 782 783 783 784 786
761 759 756 755 754 753 755 756 752 750 747 739 732 725 713 702 694 690 690 687 684 683 685 686 684 684 687 686 684 682 680 680 680 677 677 675 675 676 675 674 675 677 679 680 682 683 682 683 685 687 689 690 693 695 695 696 697 699 701 703 706 708 710 713 717 721 723 724 726 728 728 728 728 730 734 738 742 744 747 750 754 757 760 762 765 767 769 771 772 774 775 777 779 780 780 781 783
760 760 758 758 754 752 753 750 744 741 739 734 731 724 708 691 685 684 683 682 685 686 686 685 683 682 681 680 680 680 678 677 676 675 673 673 673 673 673 674 674 677 679 680 680 679 679 681 682 683 686 688 690 690 691 691 692 694 696 697 699 701 704 708 711 715 717 718 721 724 727 728 728 727 729 732 735 738 741 744 748 751 754 757 759 762 764 766 768 770 772 774 775 776 777 778 780
752 754 752 752 751 752 754 749 737 734 733 727 725 723 706 688 681 678 679 683 685 685 685 684 682 680 678 677 677 676 676 674 671 670 670 672 673 671 671 673 674 675 676 677 677 677 677 677 677 679 682 684 684 685 686 686 687 689 690 692 694 697 700 703 705 708 711 714 716 718 722 725 726 726 727 728 730 732 736 739 742 746 749 752 755 758 760 762 764 766 768 770 771 773 774 775 777